www.pogodaiklimat.ru

Погода и климат >> Архив погоды >> Россия >> Приморский край >> Сосуново


ПОГОДА в Сосуново

  • Прогноз погоды в Сосуново
  • Монитор погоды в Сосуново

АРХИВ ПОГОДЫ в Сосуново

Время (UTC), дата Ветер
(напр.,м/с)
 
Видим.   Явления Облачность Т
(С)
Тd
(С)
f
(%)
Тe
(С)
Тes
(С)
Комфортность P
(гПа)
Po
(гПа)
Тmin
(С)
Tmax
(С)
R
(мм)
R24
(мм)
S
(см)
09 17.04 Ю 9-14
{15}
20 км 6/0
[Ci fib]
+6.5 -0.1 63 +1 +1 1002.2 1001.5 +22.2
12 17.04 Ю 10-15
{16}
20 км 10/10 300 м
[St]
+1.4 +0.4 93 -7 -7 1004.1 1003.4
15 17.04 ЮЗ 7-12
{15}
н/о н/о +1.8 +1.0 94 -5 -5 1003.9 1003.2
18 17.04 СВ 2
{13}
н/о н/о +1.7 +1.0 95 -2 -2 1003.7 1003.1
21 17.04 Ю 1 4000 м слаб. морось 10/10 200 м
[St]
+1.3 +0.6 95 -1 -1 1004.6 1003.9 +1.0 0.3
00 18.04 Ю 2 500 м туман ?/? +2.6 +1.8 94 -1 -1 1004.2 1003.5
03 18.04 В 2 500 м туман ?/? +2.8 +2.0 94 -1 -1 1003.1 1002.4
06 18.04 В 6 10 км {туман} 10/10 200 м
[St]
+2.0 +1.0 93 -4 -4 1002.1 1001.4
09 18.04 В 5 4000 м дождь 10/10 300 м
[Frnb Ns]
+1.6 +0.8 94 -4 -4 1001.5 1000.8 +3.5 0.6
12 18.04 штиль 0 10 км в посл. час дождь 10/10 200 м
[St]
+1.7 +0.9 94 0 0 1001.8 1001.1
15 18.04 ЮЗ 3 н/о н/о +4.5 -2.4 61 +1 +1 1002.3 1001.6
18 18.04 ЮЗ 5
{12}
н/о н/о +2.5 -7.1 49 -2 -2 1003.0 1002.4
21 18.04 ЮЗ 7-11
{15}
20 км ясно +2.3 -9.1 43 -3 -3 1003.8 1003.1 +1.4 1
00 19.04 З 3
{13}
20 км ясно +5.8 -12.0 26 +4 +12 1004.1 1003.5
03 19.04 З 4
{12}
20 км 10/10 600 м
[Sc]
+5.4 -13.1 25 +2 +2 1005.1 1004.5
06 19.04 ЮЗ 6-12
{14}
50 км 4/4 600 м
[Cu hum]
+7.4 -11.1 26 +4 +6 1005.4 1004.7
09 19.04 ЮЗ 5
{14}
50 км 4/4 600 м
[Cu hum]
+5.0 -9.8 33 +1 +1 1006.6 1005.9 +7.5
12 19.04 ЮЗ 2
{10}
50 км ясно +2.5 -7.8 47 0 0 1007.6 1006.9
15 19.04 СЗ 3 н/о н/о -1.3 -6.8 66 -6 -6 1007.8 1007.1
18 19.04 ЮЗ 3 н/о н/о -3.2 -6.5 78 -8 -8 1008.4 1007.7
21 19.04 ЮЗ 1 20 км ясно -1.0 -4.9 75 -3 -2 1009.5 1008.8 -3.6
00 20.04 В 4
{12}
50 км 3/3 600 м
[Cu hum]
+4.6 -5.6 48 +1 +6 1009.8 1009.1
03 20.04 В 2 50 км 8/8 1000 м
[Sc]
+5.2 -4.1 51 +3 +6 1011.7 1011.0
06 20.04 ЮВ 2 50 км 6/6 600 м
[Sc]
+4.7 -1.8 63 +2 +6 1012.7 1012.0
09 20.04 Ю 1 50 км 3/3 1000 м
[Sc]
+3.5 -2.6 64 +2 +3 1012.6 1011.9 +6.9
12 20.04 З 2 50 км ясно -1.7 -5.4 76 -5 -5 1014.1 1013.4
15 20.04 ЮЗ 3 н/о н/о -4.1 -6.3 85 -9 -9 1013.8 1013.1
18 20.04 ЮЗ 2 н/о н/о -3.0 -5.4 83 -7 -7 1011.8 1011.1
21 20.04 ЮЗ 2 50 км 5/5 600 м
[Sc]
-2.2 -4.9 82 -6 -6 1011.6 1010.9 -4.3
00 21.04 Ю 1 50 км 10/10 600 м
[Sc]
+2.6 -1.6 74 +1 +1 1010.8 1010.1
03 21.04 Ю 4
{11}
20 км 9/9 600 м
[Sc]
+5.4 +0.6 71 +2 +3 1008.5 1007.8
06 21.04 Ю 4 20 км 5/5 600 м
[Sc]
+5.0 +1.6 79 +1 +4 1007.2 1006.5
09 21.04 В 2 500 м туман ?/? +1.6 +0.6 93 -2 -2 1008.4 1007.7 +5.6
12 21.04 З 2 2000 м дымка {туман} 10/10 200 м
[St]
+0.3 -0.5 94 -3 -3 1011.0 1010.3
15 21.04 ЮЗ 2 н/о н/о -2.2 -2.8 96 -6 -6 1012.2 1011.5
18 21.04 ЮЗ 6 н/о н/о -2.2 -6.4 73 -9 -9 1012.7 1012.0
21 21.04 ЮЗ 6 50 км ясно -1.4 -7.8 62 -8 -8 1013.7 1013.0 -2.4
00 22.04 З 5-11
{13}
20 км ясно +12.0 -14.9 14 +10 +16 1013.8 1013.1
03 22.04 СВ 3
{12}
50 км 1/1 1000 м
[Cu hum]
+8.2 -6.6 34 +6 +18 опасность
простуды
1013.7 1013.0
06 22.04 Ю 1 50 км 3/3 600 м
[Cu hum]
+8.9 -2.8 44 +9 +16 1013.2 1012.5
09 22.04 В 1 50 км 1/0
[Ci fib]
+6.3 -3.6 49 +6 +6 1013.2 1012.5 +14.2
12 22.04 ЮЗ 2 50 км ясно +2.6 -9.9 39 0 0 1015.0 1014.3
15 22.04 ЮЗ 5 н/о н/о +2.3 -11.3 36 -2 -2 1017.0 1016.3
18 22.04 ЮЗ 5 н/о н/о +0.1 -10.1 46 -5 -5 1015.7 1015.0
21 22.04 ЮЗ 2 20 км 10/0
[As op]
+0.5 -8.6 50 -2 -2 1016.0 1015.3 -0.7
00 23.04 СВ 4 50 км 10/0
[As op]
+3.5 -2.7 64 -1 +1 1013.9 1013.2
03 23.04 СВ 2 50 км 10/0
[As op]
+3.4 -1.2 72 +1 +4 1011.9 1011.2
06 23.04 Ю 7-11
{12}
50 км 10/0
[As op]
+5.3 +0.6 72 0 +1 1007.8 1007.1
09 23.04 Ю 2
{11}
20 км ясно +3.2 +1.1 86 0 +1 1007.2 1006.5 +6.1
12 23.04 СЗ 2 20 км ясно +1.0 -0.2 92 -3 -3 1007.7 1007.0
15 23.04 З 2 н/о н/о -1.0 -2.1 92 -5 -5 1007.3 1006.6
18 23.04 ЮЗ 2 н/о н/о -1.8 -2.7 94 -6 -6 1006.6 1006.0
21 23.04 ЮЗ 4 20 км 6/0
[As op]
-1.1 -2.1 93 -7 -7 1007.0 1006.4 -2.0
00 24.04 В 1 10 км 10/5 1000 м
[Cb cap Ci fib]
+2.9 +0.2 82 +1 +6 1006.2 1005.5
03 24.04 ЮЗ 6-10
{12}
20 км 10/10 1000 м
[Cb cap]
+14.5 -1.5 33 +13 +13 1005.0 1004.3
06 24.04 ЮЗ 4
{13}
20 км 10/5 600 м
[Cb cap As op]
+11.7 -0.1 44 +10 +11 1006.2 1005.6

 

Местоположение метеостанции Сосуново (Приморский край, Россия): широта 46.55 долгота 138.30 высота над уровнем моря 4 м.

В архиве по умолчанию представлена погода в Сосуново за последнюю неделю. Архивные данные за месяц целиком и за предыдущие месяцы, начиная с января 2011 года, Вы можете получить, выбрав интересующий диапазон дат из раскрывающегося списка и нажав кнопку "Ввод!".


*Определитесь, кто Вы:
робот инопланетянин человек

Внимание! Время в таблицах - всемирное. Для получения местного времени необходимо прибавить поправку, которая равна 10 ч.

Смотрите также архив погоды в соседних городах и на ближайших метеорологических станциях:

Погода в Агзу (Приморский край, Россия) (117 км)
Погода в Сукпае (Хабаровский край, Россия) (142 км)
Погода в Малой Кеме (Приморский край, Россия) (158 км)
Погода в Гвасюгах (Хабаровский край, Россия) (208 км)
Погода в Тернее (Приморский край, Россия) (217 км)
Погода на Острове Монерон (Сахалинская область, Россия) (225 км)
Погода в Красном Яре (Приморский край, Россия) (230 км)
Погода в Глубинном (Приморский край, Россия) (237 км)
Погода в Бичевой (Хабаровский край, Россия) (245 км)
Погода в Тивяку (Хабаровский край, Россия) (248 км)

Пояснения к столбцам:

Ветер - указаны скорость ветра в м/с - средняя за 10 мин, порывы в срок и между сроками (в фигурных скобках) и направление, откуда дует ветер: С - северный, СВ - северо-восточный, В - восточный, ЮВ - юго-восточный, Ю - южный, ЮЗ - юго-западный, З - западный, СЗ - северо-западный.
Видимость - горизонтальная дальность видимости в метрах или километрах. При видимости от 1 до 10 км при отсутствии осадков обычно наблюдается дымка, при ухудшении видимости до 1 км и менее - туман. В сухую погоду видимость может ухудшаться дымом, пылью или мглою.
Явления - указаны атмосферные явления, наблюдавшиеся в срок или в последний час перед сроком; фигурными скобками обозначены явления, наблюдавшиеся между сроками (за 1-3 часа до срока); квадратными скобками обозначены град или гололедные отложения с указанием их диаметра в мм.
Облачность - указаны через наклонную черту общая и нижняя облачность в баллах и высота нижней границы облаков в метрах; квадратными скобками обозначены формы облаков: Ci - перистые, Cs - перисто-слоистые, Cc - перисто-кучевые, Ac - высококучевые, As - высокослоистые, Sc - слоисто-кучевые, Ns - слоисто-дождевые, Cu - кучевые, Cb - кучево-дождевые. Подробнее классификацию облаков см. в Атласе облаков (PDF).
T - Температура воздуха - температура, измеренная на высоте 2 м над землей.
Td - Температура точки росы - температура, при понижении до которой содержащийся в воздухе водяной пар достигнет насыщения.
f - Относительная влажность воздуха - влажноcть воздуха, измеренная на высоте 2 м над землей.
Te - Эффективная температура - температура, которую ощущает одетый по сезону человек в тени. Характеристика душности погоды. При расчете учитывается влияние влажности воздуха и скорости ветра на теплоощущения человека.
Tes - Эффективная температура на солнце - температура, которую ощущает человек, с поправкой на солнечный нагрев. Характеристика знойности погоды. Зависит от высоты солнца над горизонтом, облачности и скорости ветра. Ночью, в пасмурную погоду, а также при ветре 12 м/с и более поправка равна нулю.
P - Атмосферное давление - приведенное к уровню моря атмосферное давление.
Po - Атмосферное давление - измеренное на уровне метеостанции атмосферное давление.
Tmin - Минимальная температура - минимум температуры воздуха на высоте 2 м над землей.
Tmax - Максимальная температура - максимум температуры воздуха на высоте 2 м над землей.
R - Количество осадков - Количество выпавших осадков за период времени, мм. При наведении курсора мыши на число - период времени, за который выпало указанное количество осадков.
R24 - Количество осадков - Количество выпавших осадков за 24 часа, мм.
S - Снежный покров - Высота снежного покрова, см. При наведении курсора мыши на число - состояние снежного покрова и степень покрытия местности в баллах.